Regional Weather Roundup
Issued by NWS Midland/Odessa, TX

Home | Current Version | Previous Version | Text Only | Print | Product List | Glossary On
Versions: 1 2 3 4 5 6 7 8 9 10 11 12 13 14 15 16 17 18 19 20 21 22 23 24 25 26 27 28 29 30 31 32 33 34 35 36 37 38 39 40 41 42 43 44 45 46 47 48 49 50
821
ASUS44 KMAF 100710
RWRMAF
MIDLAND AREA WEATHER ROUNDUP
NATIONAL WEATHER SERVICE MIDLAND TX
100 AM CST SAT DEC 10 2016

...IN SOUTHWEST TEXAS AND SOUTHEAST NEW MEXICO...

CITY           SKY/WX    TMP DP  RH WIND       PRES   REMARKS
ALPINE         CLOUDY    43  37  80 SW15      30.34F WCI  35
ANDREWS        FAIR      30  30 100 SE5       30.29F WCI  25
ARTESIA        CLOUDY    27  27 100 N6        30.25F WCI  20
BIG SPRING     CLOUDY    32  28  86 SE8       30.34F WCI  25
CARLSBAD       CLOUDY    27  27 100 CALM      30.24F
DRYDEN           N/A     31  29  92 CALM      30.35F
FORT STOCKTON  CLOUDY    36  34  92 S12       30.27F WCI  28
GUAD PASS      NOT AVBL
HOBBS          CLOUDY    28  28 100 SE6       30.26F WCI  22
MARFA          FOG       27  27 100 NW5       30.34S VSB 1/4 WCI  22
MIDLAND AIRPK  CLOUDY    34  30  86 S7        30.31F WCI  28
MIDLAND INTL   CLOUDY    33  29  85 S8        30.30F WCI  26
ODESSA         CLOUDY    33  28  81 S8        30.29F WCI  26
PECOS          CLOUDY    33  32  96 NE3       30.29S
PRESIDIO       FAIR      38  34  87 N5        30.34S WCI  34
SEMINOLE       CLOUDY    31  30  97 CALM      30.28F
SNYDER         CLOUDY    32  27  84 S9        30.33F WCI  24
WINK           CLOUDY    34  31  88 SE9       30.27S WCI  27
$$
...OTHER STATIONS IN TEXAS...

CITY           SKY/WX    TMP DP  RH WIND       PRES   REMARKS
ABILENE        CLOUDY    34  24  67 S13       30.37F WCI  25
AMARILLO       CLOUDY    28  26  92 S15       30.20F WCI  16
AUSTIN         PTCLDY    32  29  88 CALM      30.49F
BROWNSVILLE    CLOUDY    46  35  65 NW12G22   30.43F
CORPUS CHRISTI CLOUDY    47  34  60 N12       30.48F
DALLAS FTW     CLOUDY    36  23  59 SE6       30.48F WCI  31
DEL RIO        CLOUDY    42  32  67 SE9       30.43F WCI  37
EL PASO        PTCLDY    34  28  79 NE5       30.30F WCI  30
HOUSTON INT    CLOUDY    43  28  55 NE5       30.51F
LUBBOCK        CLOUDY    32  28  85 S9        30.25F WCI  24
SAN ANGELO     CLOUDY    34  26  72 S7        30.38F WCI  28
SAN ANTONIO    CLOUDY    38  27  64 CALM      30.47F
WACO           PTCLDY    34  29  82 E5        30.49F WCI  30
WICHITA FALLS  NOT AVBL
$$
...OTHER LOCATIONS IN NEW MEXICO...

CITY           SKY/WX    TMP DP  RH WIND       PRES   REMARKS
ALAMAGORDO     NOT AVBL
ALBUQUERQUE    CLOUDY    32  25  75 CALM      30.30F
CANNON AFB     CLOUDY    25  25 100 CALM      30.20F
CLOVIS         CLOUDY    23  19  86 SW8       30.20F WCI  14
HOLLOMAN AFB   CLOUDY    28  20  72 E5        30.35S WCI  23
ROSWELL        CLOUDY    26  21  81 CALM      30.23F
RUIDOSO        CLOUDY    39  23  52 NW7       30.29F WCI  34
SANTA FE       CLOUDY    27  21  78 CALM      30.28F
TRUTH OR CONSE PTCLDY    34  25  69 W5        30.29F WCI  30
TUCUMCARI      CLOUDY    30  25  81 SW9       30.13F WCI  22
$$




USA.gov is the U.S. government's official web portal to all federal, state and local government web resources and services.